Back to catalog

STARLINK-37987

AliveCommunicationsSSO
NORAD 69749·PAYLOAD·🇺🇸 United States

Launched Jul 2, 2026 from Vandenberg Space Force Base

Loading…

Next Passes (next 24 hours)

TLE

FreshSource: CelesTrak SupGP

Epoch: Sep 14, 2026, 21:16 UTC

1 69749C 26150L   26257.88659722  .00072882  00000+0  22633-2 0  2579
2 69749  97.2844  96.9053 0002127  93.2517   9.1204 15.33389137    12

Track STARLINK-37987 in real time with AllMySat

Download on the App Store